STARLINK-32949, 63145

Orbit data source: Space-Track

STARLINK-32949, 63145 is a payload satellite owned by SpaceX/Seattle (US) in LEO that was launched on Mon, 03 Mar 2025 UTC via an FALCON 9 launch vehicle from the Air Force Eastern Test Range (AFETR). Payload-class satellites include a variety of spacecraft equipped with specific instruments for various scientific and technological missions. These include communications satellites like Starlink; space stations such as the ISS; scientific satellites like the Hubble; Earth observation satellites from companies like Planet Labs, Umbra, and HawkEye 360; GPS; miniature CubeSats for education and research; and military/defense satellites.

Loading next visibility...
Identifier
63145, 2025-043P
Orbit
LEO
Country
Flag of USUS
Related business
Manufacturer
SpaceX/Seattle
Mission
Operational Commercial Communications
Bus & Motor
STARLINK V2M, Unknown motor
Mass
730 kg wet, ~700 kg dry
Launch date (UTC)
2025-03-03 (2 years ago)
Launch vehicle
FALCON 9
Launch site
Air Force Eastern Test Range (AFETR)
Object type
Payload
Rocket body
Debris
Shape & HBR
Box + 2 Pan, 17.7 m
Radar Cross Section
33.884 m², Large (>1 m²)

Expand to show TLE details & history
Last TLE update: 21 hours ago

TLE from 21 hours ago
0 STARLINK-32949
1 63145U 25043P   26255.46284849  .00013981  00000-0  51628-3 0  9995
2 63145  43.0029  41.7098 0001285 254.9916 105.0794 15.27602310 86490
Epoch: 2026-09-12T11:06Z
TLE epoch observation values (Epoch: 2026-09-12T11:06:30.109Z)
Latitude
0.00001°
Longitude
-116.38714°
Altitude
482.987 km
Speed
7.626 km/s
True Right ascension
02h 46m 50s
True Declination
0° 00' 00"
Sunlit
Object was in full shadow at epoch
Visualization orbit readout
Latitude
Unknown
Longitude
Unknown
Altitude
Unknown
Speed
Unknown
Apparent Right ascension
Unknown
Apparent Declination
Unknown
Sunlit
N/A
Visualization observer readout
Local Sidereal Time
00:43:40
Azimuth
Unknown
Elevation
Unknown
Doppler factor
Unknown
Orbital elements
Apogee altitude
485.809 km
Perigee altitude
484.045 km
Semi-major axis
6,863.064 km
Eccentricity
0.00013
Inclination
43.0029°
RAAN
41.7098°
Arg. of periapsis
254.9916°
True anomaly
105.09362°
Mean anomaly
105.0794°
Eccentric anomaly
105.08651°
Mean motion
3.81739 °/min
Orbital period
94.31 mins
BSTAR
0.00051628
Loading maneuver chart data...
Computing Atmospheric mass density...
Loading historical data...
Loading historical data...
Loading historical data...
Loading historical data...
Loading historical data...
Loading historical data...
Loading historical data...

Documentation

Showing up to 5 results
|